FW8005 Weather Reports


time (UTC)temp
F
wind
direction
speed
knots
gust
knots
rain 1hr
in
rain 24hr
in
rain mn
in
humidity
%
barometer
mb
20260505230035 67 0 0.0 0.9 0.00 0.00 0.00 66 1015.5
20260505224534 65 0 0.0 2.6 0.00 0.00 0.00 69 1015.6
20260505223041 63 288 0.9 3.5 0.00 0.00 0.00 71 1015.7
20260505221543 64 282 0.9 3.5 0.00 0.00 0.00 70 1015.9
20260505220042 63 265 1.7 5.2 0.00 0.00 0.00 70 1016.0
20260505214550 64 297 0.0 0.9 0.00 0.00 0.00 70 1015.9
20260505213039 63 0 0.9 4.3 0.00 0.00 0.00 71 1016.1
20260505211536 62 293 0.9 3.5 0.00 0.00 0.00 73 1016.0
20260505210043 62 288 0.9 2.6 0.00 0.00 0.00 73 1016.1
20260505204540 63 127 0.0 0.9 0.00 0.00 0.00 71 1016.1
20260505203053 61 0 0.9 2.6 0.00 0.00 0.00 75 1016.2
20260505201541 61 0 0.0 0.9 0.00 0.00 0.00 73 1016.4
20260505200034 60 234 0.0 1.7 0.00 0.00 0.00 75 1016.3
20260505194542 61 0 0.0 2.6 0.00 0.00 0.00 75 1016.3
20260505193040 60 311 0.9 2.6 0.00 0.00 0.00 74 1016.2
20260505191540 61 290 0.9 2.6 0.00 0.00 0.00 74 1016.3
20260505190038 61 285 0.0 3.5 0.00 0.00 0.00 74 1016.2
20260505184542 60 286 0.0 3.5 0.00 0.00 0.00 76 1016.3
20260505183039 60 174 0.0 2.6 0.00 0.00 0.00 76 1016.3
20260505181559 60 97 0.0 3.5 0.00 0.00 0.00 76 1016.2
20260505180039 59 0 0.0 1.7 0.00 0.00 0.00 77 1016.1
20260505174541 58 126 0.0 1.7 0.00 0.00 0.00 80 1016.2
20260505173035 57 0 0.0 2.6 0.00 0.00 0.00 81 1016.3
20260505171535 57 288 0.0 1.7 0.00 0.00 0.00 81 1016.1
20260505170100 56 304 0.9 3.5 0.00 0.00 0.00 81 1016.0
20260505164542 56 288 0.0 1.7 0.00 0.00 0.00 83 1015.9
20260505163037 55 0 0.0 0.9 0.00 0.00 0.00 84 1016.0
20260505161537 55 0 0.0 0.9 0.00 0.00 0.00 85 1015.9
20260505153041 54 85 0.9 3.5 0.00 0.00 0.00 86 1015.7
20260505151555 54 0 0.0 0.9 0.00 0.00 0.00 88 1015.8
20260505124536 52 110 0.0 2.6 0.00 0.00 0.00 88 1014.6
20260505123041 52 0 0.0 1.7 0.00 0.00 0.00 88 1014.5
20260505121537 52 0 0.0 0.9 0.00 0.00 0.00 89 1014.5
20260505120039 52 111 0.0 1.7 0.00 0.00 0.00 89 1014.4
20260505114540 52 121 0.0 0.9 0.00 0.00 0.00 89 1014.3
20260505113041 52 0 0.0 1.7 0.00 0.00 0.00 90 1014.4
20260505111542 51 0 0.0 0.9 0.00 0.00 0.00 90 1014.3
20260505101552 52 0 0.0 2.6 0.00 0.00 0.00 89 1013.9
20260505100038 52 101 0.0 1.7 0.00 0.00 0.00 89 1014.0
20260505094540 52 0 0.0 2.6 0.00 0.00 0.00 89 1013.9
20260505093042 52 99 0.9 2.6 0.00 0.00 0.00 89 1013.7
20260505091539 52 0 0.0 2.6 0.00 0.00 0.00 88 1013.7
20260505090051 52 75 0.0 2.6 0.00 0.00 0.00 87 1013.6
20260505084534 53 0 0.0 3.5 0.00 0.00 0.00 87 1013.4
20260505083038 53 252 0.9 4.3 0.00 0.00 0.00 86 1013.5
20260505081542 54 124 0.0 4.3 0.00 0.00 0.00 85 1013.4
20260505080035 54 0 0.9 5.2 0.00 0.00 0.00 84 1013.5
20260505074534 54 101 0.9 5.2 0.00 0.00 0.00 84 1013.2
20260505073041 55 89 0.9 6.1 0.00 0.00 0.00 83 1012.9
20260505071539 55 121 0.0 7.0 0.00 0.00 0.00 83 1012.9
20260505070041 55 29 1.7 5.2 0.00 0.00 0.00 82 1012.8
20260505064535 56 6 2.6 6.1 0.00 0.00 0.00 82 1012.6
20260505063040 56 81 0.9 7.0 0.00 0.00 0.00 82 1012.3
20260505061540 57 95 0.9 4.3 0.00 0.00 0.00 81 1012.3
20260505060042 58 123 0.9 5.2 0.00 0.00 0.00 80 1012.2
20260505054543 58 105 1.7 5.2 0.00 0.00 0.00 79 1012.1
20260505053042 59 0 1.7 5.2 0.00 0.00 0.00 78 1012.0
20260505051536 60 127 1.7 5.2 0.00 0.00 0.00 77 1011.9
20260505041535 63 65 0.9 2.6 0.00 0.00 0.00 71 1011.1
20260505040035 64 135 0.0 3.5 0.00 0.00 0.00 70 1011.0
20260505034535 66 307 0.9 6.1 0.00 0.00 0.00 69 1010.5
20260505033102 67 55 0.9 6.1 0.00 0.00 0.00 68 1010.4
20260505031540 69 282 0.0 1.7 0.00 0.00 0.00 66 1010.2
20260505030035 69 304 0.0 2.6 0.00 0.00 0.00 66 1010.0
20260505024539 70 306 0.9 2.6 0.00 0.00 0.00 65 1009.9
20260505023042 71 328 0.9 3.5 0.00 0.00 0.00 64 1009.8
20260505021535 72 321 0.9 3.5 0.00 0.00 0.00 63 1009.8
20260505020046 73 283 0.0 3.5 0.00 0.00 0.00 63 1009.7
20260505014539 74 221 0.0 3.5 0.00 0.00 0.00 62 1009.6
20260505013039 76 289 1.7 6.1 0.00 0.00 0.00 57 1009.7
20260505011533 76 260 1.7 5.2 0.00 0.00 0.00 58 1009.7
20260505010040 76 334 1.7 5.2 0.00 0.00 0.00 57 1009.9
20260505004543 75 304 1.7 5.2 0.00 0.00 0.00 60 1010.1
20260505003039 75 292 0.9 6.1 0.00 0.00 0.00 60 1010.0
20260505001540 75 339 0.9 3.5 0.00 0.00 0.00 59 1010.2
20260505000038 75 85 1.7 6.1 0.00 0.00 0.00 59 1010.3
20260504234600 74 78 1.7 6.1 0.00 0.00 0.00 59 1010.4
20260504233035 75 326 0.9 7.0 0.00 0.00 0.00 58 1010.5
20260504231547 74 169 1.7 7.8 0.00 0.00 0.00 60 1010.5